Retour au catalogue

STARLINK-2102

ActifCommunicationsVLEO
NORAD 47382·PAYLOAD·🇺🇸 United States

Lancé Jan 20, 2021 depuis Cape Canaveral Space Force Station

Loading…

Prochains Passages (prochaines 24 heures)

TLE

FraisSource: CelesTrak SupGP

Époque: Sep 15, 2026, 01:41 UTC

1 47382C 21005AK  26258.07062500 -.00025618  00000+0 -82380-3 0  2580
2 47382  53.1573 225.2059 0001254  87.7028 296.5218 15.31714637    11

Suivez STARLINK-2102 en temps réel avec AllMySat

Download on the App Store